TimeEST,TemperatureF,Dew PointF,Humidity,Sea Level PressureIn,VisibilityMPH,Wind Direction,Wind SpeedMPH,Gust SpeedMPH,PrecipitationIn,Events,Conditions,WindDirDegrees,DateUTC
12:15 AM,5.9,3.4,89,30.32,10.0,Calm,Calm,-,N/A,,Unknown,0,2013-02-11 05:15:00
12:35 AM,5.0,2.3,89,30.32,10.0,Calm,Calm,-,N/A,,Unknown,0,2013-02-11 05:35:00
12:55 AM,4.1,1.8,90,30.31,10.0,Calm,Calm,-,N/A,,Unknown,0,2013-02-11 05:55:00
1:15 AM,4.6,2.3,90,30.29,10.0,Calm,Calm,-,N/A,,Unknown,0,2013-02-11 06:15:00
1:35 AM,5.0,1.6,86,30.29,10.0,Calm,Calm,-,N/A,,Unknown,0,2013-02-11 06:35:00
1:55 AM,5.0,1.4,85,30.29,10.0,Calm,Calm,-,N/A,,Unknown,0,2013-02-11 06:55:00
2:15 AM,5.5,2.3,86,30.28,10.0,Calm,Calm,-,N/A,,Unknown,0,2013-02-11 07:15:00
2:35 AM,5.2,2.5,89,30.27,10.0,Calm,Calm,-,N/A,,Unknown,0,2013-02-11 07:35:00
2:55 AM,5.5,2.1,86,30.27,10.0,Calm,Calm,-,N/A,,Unknown,0,2013-02-11 07:55:00
3:15 AM,5.2,1.8,86,30.26,10.0,Calm,Calm,-,N/A,,Unknown,0,2013-02-11 08:15:00
3:35 AM,5.4,2.1,86,30.25,10.0,Calm,Calm,-,N/A,,Unknown,0,2013-02-11 08:35:00
4:15 AM,5.9,2.7,87,30.23,10.0,Calm,Calm,-,N/A,,Unknown,0,2013-02-11 09:15:00
4:35 AM,7.2,3.6,85,30.23,10.0,Calm,Calm,-,N/A,,Unknown,0,2013-02-11 09:35:00
4:55 AM,7.7,4.1,85,30.21,10.0,Calm,Calm,-,N/A,,Unknown,0,2013-02-11 09:55:00
5:15 AM,8.4,5.0,86,30.20,10.0,Calm,Calm,-,N/A,,Unknown,0,2013-02-11 10:15:00
5:35 AM,9.3,5.4,84,30.20,10.0,Calm,Calm,-,N/A,,Unknown,0,2013-02-11 10:35:00
5:55 AM,9.5,5.7,85,30.19,10.0,Calm,Calm,-,N/A,,Unknown,0,2013-02-11 10:55:00
6:15 AM,10.2,6.1,83,30.19,10.0,Calm,Calm,-,N/A,,Unknown,0,2013-02-11 11:15:00
6:35 AM,11.3,7.0,83,30.18,10.0,Calm,Calm,-,N/A,,Unknown,0,2013-02-11 11:35:00
6:55 AM,12.4,7.9,82,30.17,10.0,Calm,Calm,-,N/A,,Unknown,0,2013-02-11 11:55:00
7:15 AM,13.6,8.6,80,30.16,10.0,Calm,Calm,-,N/A,,Unknown,0,2013-02-11 12:15:00
7:35 AM,14.5,9.3,80,30.15,10.0,ENE,3.5,-,N/A,,Unknown,60,2013-02-11 12:35:00
7:55 AM,15.6,9.5,77,30.15,10.0,Calm,Calm,-,N/A,,Unknown,0,2013-02-11 12:55:00
8:15 AM,16.3,9.5,74,30.14,10.0,East,3.5,-,N/A,,Unknown,100,2013-02-11 13:15:00
8:35 AM,17.4,9.5,71,30.13,10.0,Calm,Calm,-,N/A,,Unknown,0,2013-02-11 13:35:00
8:55 AM,17.6,9.7,71,30.11,10.0,Calm,Calm,-,N/A,,Unknown,0,2013-02-11 13:55:00
9:15 AM,18.0,10.0,71,30.11,4.0,Calm,Calm,-,N/A,Snow,Light Snow,0,2013-02-11 14:15:00
9:35 AM,18.0,12.2,78,30.10,2.0,Calm,Calm,-,N/A,Snow,Light Snow,0,2013-02-11 14:35:00
9:55 AM,17.6,13.5,84,30.10,1.0,Calm,Calm,-,N/A,Snow,Light Snow,0,2013-02-11 14:55:00
10:15 AM,17.2,14.7,90,30.07,0.2,Calm,Calm,-,0.01,Snow,Snow,0,2013-02-11 15:15:00
10:35 AM,18.1,16.2,92,30.05,0.5,Calm,Calm,-,0.05,Snow,Snow,0,2013-02-11 15:35:00
10:55 AM,19.4,17.6,93,30.04,0.5,Calm,Calm,-,0.06,Snow,Snow,0,2013-02-11 15:55:00
11:15 AM,20.7,18.5,91,30.02,0.8,Calm,Calm,-,0.01,Snow,Light Snow,0,2013-02-11 16:15:00
11:35 AM,21.0,18.7,91,30.00,0.5,ENE,3.5,-,0.03,Snow,Snow,70,2013-02-11 16:35:00
11:55 AM,20.3,18.3,92,29.98,1.0,East,4.6,-,0.05,Snow,Light Snow,100,2013-02-11 16:55:00
12:15 PM,20.3,18.5,93,29.95,0.8,East,3.5,-,0.01,Snow,Light Snow,90,2013-02-11 17:15:00
12:35 PM,20.8,19.0,93,29.93,0.8,Calm,Calm,-,0.02,Snow,Light Snow,0,2013-02-11 17:35:00
12:55 PM,21.2,19.4,93,29.91,1.0,East,3.5,-,0.03,Snow,Light Snow,90,2013-02-11 17:55:00
1:15 PM,21.2,19.4,93,29.89,1.0,Calm,Calm,-,0.01,Snow,Light Snow,0,2013-02-11 18:15:00
1:35 PM,22.1,20.3,93,29.87,1.2,ENE,3.5,-,0.02,Snow,Light Snow,70,2013-02-11 18:35:00
1:55 PM,22.5,20.7,93,29.86,1.5,Calm,Calm,-,0.02,Snow,Light Snow,0,2013-02-11 18:55:00
2:15 PM,23.0,21.4,94,29.85,1.5,Calm,Calm,-,N/A,Snow,Light Snow,0,2013-02-11 19:15:00
2:35 PM,23.2,22.1,96,29.84,1.8,Calm,Calm,-,0.01,,Unknown,0,2013-02-11 19:35:00
2:55 PM,23.7,22.8,96,29.82,1.8,Calm,Calm,-,0.01,,Unknown,0,2013-02-11 19:55:00
3:15 PM,24.3,23.5,97,29.79,1.8,East,3.5,-,N/A,,Mist,90,2013-02-11 20:15:00
3:35 PM,24.8,24.1,97,29.79,3.0,Calm,Calm,-,N/A,,Mist,0,2013-02-11 20:35:00
4:15 PM,25.5,24.8,97,29.75,7.0,Calm,Calm,-,N/A,,Unknown,0,2013-02-11 21:15:00
4:35 PM,25.5,24.8,97,29.74,10.0,Calm,Calm,-,N/A,,Unknown,0,2013-02-11 21:35:00
4:55 PM,25.7,25.2,98,29.73,10.0,Calm,Calm,-,N/A,,Unknown,0,2013-02-11 21:55:00
6:15 PM,25.7,25.2,98,29.69,3.0,Calm,Calm,-,N/A,,Mist,0,2013-02-11 23:15:00
6:35 PM,25.7,25.3,99,29.68,2.5,Calm,Calm,-,N/A,,Mist,0,2013-02-11 23:35:00
6:55 PM,25.7,25.5,99,29.68,2.5,Calm,Calm,-,N/A,,Mist,0,2013-02-11 23:55:00
7:15 PM,26.1,25.7,99,29.67,1.8,Calm,Calm,-,N/A,,Mist,0,2013-02-12 00:15:00
7:35 PM,26.1,25.7,99,29.66,1.2,Calm,Calm,-,N/A,,Mist,0,2013-02-12 00:35:00
7:55 PM,26.1,25.7,99,29.65,0.8,Calm,Calm,-,N/A,,Mist,0,2013-02-12 00:55:00
8:15 PM,26.1,25.7,99,29.64,0.8,Calm,Calm,-,N/A,,Mist,0,2013-02-12 01:15:00
8:35 PM,26.2,25.7,98,29.64,0.5,Calm,Calm,-,N/A,Fog,Light Freezing Fog,0,2013-02-12 01:35:00
8:55 PM,26.2,25.7,98,29.64,0.8,Calm,Calm,-,N/A,,Mist,0,2013-02-12 01:55:00
9:15 PM,26.4,26.1,99,29.64,0.5,Calm,Calm,-,N/A,Fog,Light Freezing Fog,0,2013-02-12 02:15:00
9:35 PM,26.6,26.2,99,29.63,0.5,Calm,Calm,-,N/A,Fog,Light Freezing Fog,0,2013-02-12 02:35:00
9:55 PM,26.6,26.4,99,29.63,2.0,Calm,Calm,-,N/A,,Unknown,0,2013-02-12 02:55:00
10:15 PM,27.3,26.8,98,29.61,1.5,Calm,Calm,-,N/A,,Unknown,0,2013-02-12 03:15:00
10:35 PM,27.5,27.3,99,29.61,3.0,Calm,Calm,-,N/A,,Mist,0,2013-02-12 03:35:00
10:55 PM,27.9,27.5,99,29.61,5.0,Calm,Calm,-,N/A,,Mist,0,2013-02-12 03:55:00
11:15 PM,28.2,27.9,99,29.60,5.0,Calm,Calm,-,N/A,,Mist,0,2013-02-12 04:15:00
11:35 PM,27.5,27.3,99,29.59,4.0,Calm,Calm,-,N/A,,Mist,0,2013-02-12 04:35:00
11:55 PM,27.5,27.1,99,29.58,4.0,Calm,Calm,-,N/A,,Mist,0,2013-02-12 04:55:00